This is the latest recevied weather packets stored in our database for station/object N2PUI. If no packets are shown the sender has not sent any weather packets the latest 10 day(s).
| Time | Temp. | Humidity | Pressure | Rain* | Wind** | Luminosity | Snow |
|---|---|---|---|---|---|---|---|
| 1777850314 | 13.33° C | 41% | 1010.3 hPa | 0 mm | - | 40 W/m² | - |
| 1777850010 | 13.33° C | 42% | 1010.6 hPa | 0 mm | - | 51 W/m² | - |
| 1777849706 | 12.78° C | 42% | 1010.5 hPa | 0 mm | - | 74 W/m² | - |
| 1777849403 | 12.78° C | 42% | 1010.3 hPa | 0 mm | - | 62 W/m² | - |
| 1777849101 | 12.78° C | 44% | 1010.4 hPa | 0 mm | - | 56 W/m² | - |
| 1777848797 | 12.78° C | 44% | 1010.5 hPa | 0 mm | - | 59 W/m² | - |
| 1777848493 | 12.78° C | 43% | 1010.5 hPa | 0 mm | - | 66 W/m² | - |
| 1777848191 | 12.78° C | 43% | 1010.4 hPa | 0 mm | - | 55 W/m² | - |
| 1777847888 | 12.78° C | 42% | 1010.7 hPa | 0 mm | - | 73 W/m² | - |
| 1777847586 | 13.33° C | 42% | 1010.4 hPa | 0 mm | - | 145 W/m² | - |
| 1777847281 | 12.78° C | 41% | 1010.4 hPa | 0 mm | - | 167 W/m² | - |
| 1777846980 | 13.33° C | 41% | 1010.6 hPa | 0 mm | - | 175 W/m² | - |
| 1777846678 | 13.33° C | 41% | 1010.6 hPa | 0 mm | - | 151 W/m² | - |
| 1777846375 | 13.89° C | 40% | 1010.8 hPa | 0 mm | - | 208 W/m² | - |
| 1777846071 | 13.33° C | 41% | 1010.7 hPa | 0 mm | - | 218 W/m² | - |
| 1777845769 | 13.33° C | 41% | 1010.7 hPa | 0 mm | - | 232 W/m² | - |
| 1777845465 | 13.33° C | 41% | 1010.8 hPa | 0 mm | - | 271 W/m² | - |
| 1777845162 | 13.33° C | 42% | 1011.1 hPa | 0 mm | - | 289 W/m² | - |
| 1777844861 | 12.78° C | 42% | 1010.9 hPa | 0 mm | - | 361 W/m² | - |
| 1777844557 | 12.78° C | 43% | 1010.8 hPa | 0 mm | - | 285 W/m² | - |
| 1777844255 | 12.78° C | 43% | 1010.8 hPa | 0 mm | - | 155 W/m² | - |
| 1777843952 | 12.22° C | 43% | 1010.9 hPa | 0 mm | - | 346 W/m² | - |
| 1777843649 | 12.78° C | 44% | 1010.8 hPa | 0 mm | - | 176 W/m² | - |
| 1777843347 | 12.78° C | 44% | 1010.7 hPa | 0 mm | - | 223 W/m² | - |
| 1777843044 | 12.78° C | 44% | 1010.8 hPa | 0 mm | - | 201 W/m² | - |
* Rain latest hour (hover to see other rain measurements)
** Current wind speed in m/s (hover to see current wind gust speed)